Precipitable_Water
1.59 1.51 1.46 1.57 1.70 1.69 1.62 1.61 1.61 1.65 1.62 1.57 1.52 1.48 1.41 1.34 1.22 1.21 1.26 1.32 1.38 1.43 1.51 1.54 1.55 1.57 1.61 1.64 1.67 1.70 1.70 1.71 1.71 1.69 1.65 1.53 1.50 1.64 1.82 1.79 1.71 1.65 1.70
1.53 1.50 1.49 1.61 1.69 1.72 1.74 1.68 1.67 1.60 1.57 1.54 1.41 1.36 1.31 1.33 1.18 1.20 1.26 1.32 1.42 1.49 1.56 1.61 1.64 1.63 1.64 1.66 1.67 1.71 1.74 1.72 1.73 1.77 1.72 1.66 1.50 1.46 1.70 1.79 1.70 1.60 1.62
1.68 1.62 1.57 1.64 1.67 1.71 1.75 1.74 1.67 1.59 1.52 1.49 1.38 1.33 1.28 1.29 1.34 1.35 1.35 1.42 1.54 1.62 1.66 1.66 1.72 1.78 1.75 1.72 1.71 1.69 1.70 1.70 1.70 1.72 1.75 1.70 1.56 1.42 1.54 1.79 1.75 1.59 1.56
1.65 1.57 1.51 1.60 1.68 1.72 1.71 1.71 1.63 1.53 1.47 1.43 1.38 1.36 1.31 1.27 1.36 1.41 1.44 1.49 1.53 1.58 1.64 1.69 1.74 1.77 1.78 1.80 1.75 1.67 1.63 1.64 1.64 1.65 1.66 1.69 1.61 1.44 1.42 1.68 1.84 1.66 1.49
1.57 1.62 1.68 1.62 1.64 1.66 1.73 1.71 1.67 1.54 1.46 1.47 1.49 1.46 1.42 1.38 1.40 1.51 1.55 1.54 1.57 1.60 1.65 1.67 1.73 1.82 1.92 1.88 1.85 1.77 1.74 1.72 1.64 1.58 1.52 1.60 1.62 1.49 1.38 1.57 1.88 1.79 1.58
1.59 1.64 1.72 1.74 1.58 1.65 1.63 1.73 1.64 1.65 1.54 1.48 1.48 1.44 1.43 1.50 1.55 1.56 1.56 1.62 1.66 1.70 1.78 1.85 1.88 1.89 1.94 2.01 1.89 1.90 1.78 1.72 1.69 1.55 1.44 1.50 1.57 1.52 1.36 1.47 1.74 1.88 1.77
1.68 1.56 1.44 1.61 1.76 1.64 1.58 1.71 1.71 1.56 1.49 1.54 1.45 1.40 1.41 1.44 1.48 1.54 1.60 1.58 1.59 1.64 1.73 1.84 1.90 1.92 1.96 1.98 1.93 1.85 1.83 1.69 1.62 1.49 1.36 1.43 1.53 1.51 1.35 1.38 1.60 1.75 1.77
1.66 1.57 1.53 1.57 1.64 1.53 1.56 1.58 1.63 1.48 1.53 1.55 1.41 1.36 1.22 1.32 1.44 1.51 1.57 1.58 1.62 1.68 1.66 1.79 1.84 1.83 1.81 1.72 1.77 1.81 1.77 1.73 1.60 1.47 1.38 1.35 1.43 1.45 1.32 1.35 1.46 1.66 1.73
1.66 1.63 1.54 1.58 1.57 1.55 1.49 1.57 1.64 1.57 1.40 1.51 1.55 1.44 1.24 1.14 1.31 1.49 1.49 1.54 1.59 1.66 1.69 1.73 1.75 1.65 1.60 1.51 1.57 1.66 1.74 1.70 1.58 1.46 1.37 1.35 1.37 1.36 1.27 1.36 1.36 1.46 1.65
1.74 1.70 1.58 1.58 1.58 1.43 1.50 1.59 1.66 1.63 1.58 1.43 1.53 1.57 1.59 1.51 1.29 1.27 1.50 1.54 1.61 1.59 1.68 1.70 1.71 1.61 1.53 1.49 1.61 1.69 1.66 1.51 1.45 1.45 1.39 1.32 1.33 1.25 1.19 1.38 1.35 1.35 1.41
1.69 1.69 1.67 1.82 1.59 1.49 1.35 1.36 1.56 1.59 1.58 1.49 1.47 1.53 1.52 1.51 1.47 1.32 1.19 1.32 1.45 1.58 1.67 1.69 1.65 1.64 1.56 1.50 1.59 1.59 1.45 1.30 1.41 1.45 1.48 1.36 1.25 1.21 1.13 1.25 1.35 1.32 1.31
1.61 1.69 1.68 1.55 1.71 1.67 1.66 1.43 1.41 1.47 1.49 1.55 1.51 1.48 1.41 1.33 1.34 1.24 1.25 1.36 1.32 1.39 1.54 1.64 1.66 1.60 1.51 1.55 1.60 1.55 1.38 1.47 1.51 1.50 1.53 1.45 1.33 1.23 1.14 1.17 1.25 1.32 1.32
1.68 1.60 1.67 1.64 1.54 1.62 1.57 1.60 1.46 1.42 1.44 1.42 1.42 1.39 1.43 1.41 1.43 1.37 1.31 1.32 1.30 1.40 1.45 1.62 1.70 1.64 1.65 1.66 1.59 1.51 1.51 1.59 1.59 1.56 1.52 1.48 1.44 1.47 1.42 1.33 1.40 1.43 1.42
1.85 1.81 1.67 1.76 1.74 1.65 1.52 1.60 1.47 1.44 1.48 1.35 1.31 1.38 1.36 1.37 1.43 1.39 1.28 1.22 1.06 1.14 1.22 1.22 1.41 1.44 1.50 1.51 1.52 1.58 1.59 1.61 1.59 1.49 1.50 1.41 1.43 1.45 1.48 1.46 1.50 1.55 1.55
1.96 1.91 1.84 1.77 1.73 1.73 1.61 1.54 1.42 1.32 1.40 1.43 1.38 1.35 1.32 1.37 1.39 1.38 1.40 1.25 1.17 0.90 0.88 1.09 1.11 1.32 1.38 1.45 1.61 1.63 1.61 1.65 1.69 1.70 1.51 1.45 1.45 1.46 1.47 1.50 1.51 1.45 1.55
1.85 1.93 1.98 1.87 1.76 1.72 1.68 1.71 1.65 1.53 1.44 1.48 1.53 1.47 1.46 1.38 1.35 1.37 1.31 1.47 1.60 1.18 0.94 1.19 1.26 1.38 1.49 1.49 1.71 1.70 1.65 1.63 1.67 1.64 1.56 1.55 1.59 1.60 1.55 1.55 1.55 1.58 1.48
1.80 1.86 1.92 1.93 1.77 1.70 1.69 1.63 1.66 1.64 1.53 1.52 1.50 1.43 1.38 1.43 1.40 1.39 1.39 1.36 1.31 1.34 1.18 1.30 1.42 1.56 1.56 1.62 1.67 1.75 1.84 1.73 1.63 1.60 1.51 1.49 1.53 1.60 1.63 1.52 1.51 1.64 1.66
1.60 1.70 1.82 1.96 1.82 1.75 1.77 1.84 1.79 1.77 1.71 1.71 1.69 1.60 1.38 1.42 1.42 1.48 1.47 1.44 1.42 1.50 1.40 1.23 1.50 1.60 1.62 1.74 1.74 1.75 1.80 1.70 1.56 1.57 1.46 1.52 1.54 1.61 1.59 1.56 1.58 1.64 1.60
1.42 1.48 1.76 1.87 1.95 1.96 1.94 1.95 1.92 1.93 1.91 1.79 1.83 1.76 1.70 1.64 1.55 1.57 1.59 1.53 1.56 1.63 1.64 1.52 1.49 1.60 1.67 1.79 1.69 1.66 1.52 1.59 1.55 1.58 1.64 1.66 1.77 1.75 1.76 1.82 1.72 1.75 1.82
1.37 1.44 1.57 1.81 1.93 1.95 1.92 1.98 2.00 2.00 2.01 1.98 2.02 1.98 1.95 1.80 1.81 1.79 1.69 1.75 1.73 1.68 1.66 1.51 1.40 1.40 1.50 1.59 1.53 1.36 1.40 1.57 1.59 1.68 1.73 1.74 1.85 1.88 1.75 1.80 2.01 1.91 2.00
1.50 1.42 1.46 1.58 1.78 1.85 1.97 1.90 1.96 2.05 1.92 1.97 1.93 1.95 2.01 2.03 1.97 1.98 1.89 1.86 1.86 1.65 1.53 1.45 1.42 1.46 1.45 1.45 1.40 1.53 1.52 1.64 1.72 1.66 1.73 1.70 1.78 1.76 1.72 1.78 1.79 1.79 1.94
2.04 2.05 1.69 1.53 1.59 1.64 1.79 1.88 1.97 2.01 2.00 1.91 1.80 1.74 1.80 1.89 1.90 2.00 1.97 1.91 1.79 1.65 1.59 1.55 1.52 1.44 1.42 1.45 1.48 1.47 1.53 1.52 1.41 1.67 1.68 1.59 1.78 1.69 1.58 1.69 1.76 1.72 1.72
2.12 2.10 2.04 1.87 1.71 1.66 1.65 1.67 1.81 1.89 1.90 1.91 1.94 1.77 1.72 1.77 1.75 1.77 1.81 1.83 1.83 1.81 1.79 1.73 1.56 1.48 1.42 1.52 1.57 1.52 1.55 1.56 1.46 1.54 1.61 1.49 1.66 1.65 1.50 1.49 1.59 1.60 1.60
2.12 2.11 2.13 2.03 1.99 1.95 1.94 1.80 1.65 1.63 1.61 1.66 1.74 1.76 1.67 1.69 1.68 1.67 1.64 1.60 1.60 1.59 1.59 1.56 1.51 1.51 1.57 1.62 1.67 1.67 1.67 1.64 1.71 1.53 1.57 1.39 1.38 1.53 1.55 1.39 1.41 1.33 1.34
2.12 2.10 2.13 2.12 2.05 1.98 1.97 1.93 1.89 1.84 1.81 1.73 1.72 1.81 1.80 1.78 1.74 1.70 1.61 1.56 1.54 1.55 1.60 1.62 1.59 1.60 1.58 1.62 1.66 1.59 1.40 1.30 1.26 1.24 1.25 1.25 1.23 1.27 1.47 1.26 1.12 1.15 1.15
1.94 1.99 2.00 2.08 2.10 2.03 2.03 2.02 2.05 1.95 1.84 1.78 1.74 1.79 1.74 1.71 1.70 1.62 1.54 1.52 1.49 1.49 1.51 1.55 1.54 1.52 1.52 1.49 1.48 1.45 1.33 1.18 1.15 1.01 1.00 0.96 0.94 1.03 1.08 1.21 0.99 0.92 0.88
Wind_Speed
10 10 11 11 12 12 14 13 12 11 11 11 12 12 12 12 11 12 11 11 11 10 10 11 11 11 12 14 15 16 16 17 17 18 19 19 20 20 20 20 21 20 16
11 13 12 13 15 14 12 12 11 11 11 11 12 12 13 12 11 11 10 10 9 9 10 10 11 11 12 13 15 16 17 17 18 18 19 19 20 20 21 21 22 21 18
12 12 11 12 12 13 12 10 10 10 11 12 12 12 12 11 10 9 9 8 8 7 7 8 9 10 12 13 15 16 17 18 19 19 19 19 19 20 20 21 22 21 20
11 11 12 13 13 11 11 10 10 11 12 12 11 10 9 8 8 7 6 5 4 5 6 7 8 9 10 12 14 16 17 18 20 20 19 19 19 19 20 20 21 21 21
11 11 12 12 11 11 10 10 10 11 11 10 9 9 8 7 5 3 2 2 2 4 6 7 9 10 9 11 13 15 17 18 20 21 20 18 18 18 18 19 20 20 21
9 10 10 8 10 9 9 8 8 9 9 8 7 7 7 5 4 2 1 1 3 4 6 7 9 11 10 10 12 14 16 18 20 21 20 18 17 17 17 17 19 18 19
8 8 8 8 8 7 8 7 8 8 8 6 7 7 5 4 3 2 1 2 3 5 7 8 9 10 11 11 11 12 15 18 20 19 19 18 16 16 16 16 17 17 18
6 7 7 7 6 6 6 7 6 7 6 6 6 6 5 4 2 3 3 4 6 7 8 9 10 11 11 11 12 11 14 17 18 18 18 17 16 15 14 14 14 15 16
6 6 7 5 5 4 6 7 6 6 7 5 5 5 4 5 4 4 4 6 7 8 9 10 12 13 13 12 11 10 13 15 16 16 16 16 15 14 13 13 13 13 13
6 5 5 4 5 4 6 6 6 5 4 7 5 4 4 5 6 7 8 8 9 10 11 12 13 16 12 8 9 9 13 14 14 14 14 14 14 14 12 12 12 12 11
6 5 5 5 5 4 5 6 5 5 5 5 5 5 4 5 6 7 8 8 11 10 11 10 12 11 9 7 7 10 14 11 11 12 12 13 13 13 12 11 11 11 11
6 6 6 6 6 5 4 5 6 5 5 6 5 5 5 4 5 7 7 7 7 7 8 8 5 8 9 5 7 10 10 9 11 12 12 11 11 11 11 11 11 10 10
7 7 7 7 7 7 7 6 6 7 6 6 6 5 5 5 5 4 5 6 6 6 5 4 5 8 8 8 8 9 8 9 10 11 11 11 10 11 11 11 11 11 11
8 8 9 8 8 8 7 7 7 8 7 7 7 6 6 5 5 5 5 5 5 5 6 7 7 7 7 8 8 8 8 8 9 10 10 9 9 9 9 9 10 11 11
8 9 9 9 8 8 8 8 8 8 8 8 7 8 7 7 7 6 5 5 4 5 6 6 5 6 6 8 7 7 7 7 8 10 10 10 8 8 8 9 9 9 9
10 11 12 11 10 9 9 9 9 8 8 8 8 7 7 7 7 7 7 6 5 5 5 5 6 6 6 5 5 6 7 7 7 8 9 10 10 9 8 9 9 9 8
10 10 12 13 12 11 10 9 9 9 9 8 8 8 9 8 8 8 7 7 7 6 6 6 6 5 4 5 5 6 7 7 8 8 9 9 9 9 9 10 8 8 6
11 11 11 12 12 11 11 11 10 10 10 9 9 8 8 8 8 8 8 7 7 7 7 7 6 6 6 6 6 7 8 8 8 9 9 9 9 9 9 9 8 6 7
14 13 13 14 14 13 13 12 12 12 12 11 10 10 10 9 9 8 8 8 7 7 7 7 7 7 7 8 8 9 9 8 8 8 8 9 9 9 8 8 7 7 7
16 16 15 15 15 15 14 14 13 13 12 13 12 11 11 12 11 11 10 10 9 9 9 9 9 8 8 9 9 9 9 8 8 9 9 9 9 8 7 7 8 8 9
18 18 17 17 17 16 15 15 15 15 13 14 13 12 12 12 12 13 12 12 12 11 10 10 10 10 10 10 10 10 9 9 9 10 9 9 9 9 9 9 9 10 11
17 20 21 20 18 18 17 16 16 16 16 15 15 14 14 13 13 13 13 12 12 12 11 11 11 11 12 11 11 11 11 10 11 12 11 11 11 10 10 10 10 11 12
20 17 21 21 20 19 19 19 19 18 17 17 17 16 16 15 15 15 14 14 13 13 14 14 13 13 13 13 13 13 14 14 14 15 15 14 13 12 12 12 12 13 13
23 21 20 24 22 19 19 19 21 20 20 20 20 20 19 19 19 18 17 16 16 16 16 16 16 16 15 15 15 15 15 15 16 17 18 17 17 16 15 14 14 15 15
24 23 23 23 24 23 22 21 19 18 18 19 20 20 20 19 19 20 19 19 18 17 16 15 15 15 15 17 18 18 18 18 18 18 18 18 19 19 18 17 17 17 16
21 21 21 21 22 21 20 20 20 21 21 21 22 22 22 21 20 21 21 21 20 19 19 18 18 18 19 19 19 19 19 19 18 17 17 16 17 17 18 18 18 18 18
Wind_Direction
116 112 112 115 127 126 128 129 130 127 125 123 125 125 124 118 111 108 104 98 92 83 73 65 56 48 42 37 33 30 26 22 18 16 14 12 11 9 8 7 5 2 358
116 120 113 115 117 123 125 128 131 130 129 126 125 124 122 121 113 109 105 99 93 84 73 62 52 44 38 33 28 25 22 17 14 12 11 11 11 11 11 11 11 12 12
118 120 121 126 126 125 124 126 128 131 133 131 130 128 127 123 118 112 107 103 95 79 60 44 34 28 26 24 22 19 16 13 11 8 8 10 11 12 13 14 17 19 22
116 121 124 125 126 125 123 123 126 132 131 134 131 133 136 137 128 117 111 103 78 50 30 20 15 12 13 14 14 13 12 11 9 7 6 9 11 13 15 17 22 26 30
117 122 125 128 128 126 123 124 125 134 141 140 140 138 140 137 138 123 104 86 41 21 8 2 359 356 357 0 5 7 8 9 7 6 6 8 11 15 17 21 25 30 35
123 130 135 131 139 137 135 127 130 140 146 155 160 161 161 154 143 129 90 59 16 0 357 357 357 356 352 349 355 1 4 5 5 5 7 9 12 17 20 24 29 35 41
122 134 140 135 137 140 151 141 143 144 147 152 159 164 167 181 191 214 257 307 328 331 337 336 340 347 348 341 343 350 357 1 3 5 8 10 14 20 23 27 33 39 44
135 139 143 148 150 150 157 158 156 160 163 162 173 176 184 201 216 242 265 292 307 314 323 327 331 332 334 335 332 337 347 354 359 4 9 11 15 21 26 31 36 41 45
149 144 149 152 158 166 167 170 167 170 183 180 180 195 208 223 240 261 280 293 301 309 314 319 322 327 322 330 339 332 343 350 357 3 9 14 18 23 28 33 37 40 44
166 168 175 173 171 168 172 179 182 186 189 200 210 221 236 246 252 274 276 287 295 298 308 314 319 322 306 315 337 349 350 349 355 3 10 16 19 24 30 34 36 39 41
192 194 193 186 183 184 186 192 192 199 203 203 215 233 252 265 266 272 287 295 301 301 299 304 317 335 340 314 331 339 345 354 2 6 9 15 20 26 32 34 35 36 37
208 208 210 205 203 203 200 206 210 214 219 223 232 241 249 267 276 283 277 293 311 318 312 319 346 2 9 354 339 347 360 6 5 5 9 14 21 27 33 34 33 32 32
222 220 217 214 213 219 221 222 220 220 224 229 236 245 250 266 282 294 296 296 308 322 340 335 324 341 349 347 345 349 357 359 5 7 11 20 31 35 36 37 35 32 29
227 227 224 220 226 227 228 223 227 228 230 237 242 250 253 264 274 286 285 298 311 313 320 313 314 323 331 341 343 349 352 356 7 7 14 21 24 28 29 28 26 26 26
227 228 226 225 226 231 230 231 231 233 235 241 246 250 254 262 269 278 282 291 298 320 321 332 332 332 335 344 358 9 10 14 15 26 25 21 20 20 17 13 12 10 13
242 241 234 228 229 232 231 234 233 234 236 244 248 251 253 260 265 267 271 282 284 303 309 317 328 329 336 348 359 3 12 15 15 11 10 10 13 10 2 357 354 357 1
243 246 226 227 232 232 232 229 234 238 241 248 250 254 255 260 264 266 269 270 277 282 289 303 310 328 336 343 344 341 348 344 348 348 345 346 350 350 352 347 342 343 358
243 233 230 229 227 230 233 234 238 241 245 250 246 256 256 258 261 265 270 271 275 280 286 292 295 304 307 317 318 326 330 326 331 336 340 345 349 353 353 3 11 18 3
240 237 237 231 232 235 239 244 247 248 250 247 252 255 257 258 262 265 269 271 273 277 282 286 289 295 294 303 308 314 322 319 329 332 336 342 348 349 351 3 7 2 356
238 238 239 237 236 239 242 246 248 248 252 245 252 260 261 258 262 265 267 268 270 276 281 284 286 288 290 297 303 309 312 310 320 325 332 335 339 346 345 346 350 348 342
240 241 240 240 239 240 243 247 249 249 247 250 254 258 262 264 267 267 266 267 271 275 276 277 280 283 286 293 298 302 302 302 304 318 314 321 322 331 330 330 330 332 333
246 245 242 240 240 242 247 249 248 248 249 252 254 257 259 264 266 266 269 268 269 269 274 276 278 279 282 286 288 292 297 299 298 309 302 310 309 311 320 324 323 327 330
243 249 241 239 239 243 247 251 250 249 251 252 254 258 259 260 264 265 266 268 270 271 274 274 275 276 279 280 282 286 289 289 289 299 295 294 295 296 304 309 311 315 321
246 250 248 236 239 245 253 258 251 249 252 254 255 258 260 262 263 261 263 265 268 272 275 274 274 275 276 277 280 285 288 289 285 292 293 286 288 282 287 298 303 307 310
247 248 244 241 239 248 254 255 246 248 252 255 255 258 258 262 263 260 261 262 267 270 274 274 274 275 278 281 280 282 285 286 287 289 294 285 286 279 277 286 296 298 303
245 243 240 241 244 243 250 246 249 252 256 257 258 259 260 262 262 262 261 263 264 266 267 269 273 276 279 281 283 283 282 284 283 284 293 287 286 285 276 280 292 295 297